Content
SEND FEEDBACK

Daily
Averages
Monthly
Summary
United States of America

ST. LOUIS - SAINT LOUIS UNIVERSITY, MISSOURI


Home > North America > United States > Missouri
Elevation: 177 meters     Latitude: 38 38N     Longitude: 090 14W

WEATHER
 
SELECT A DAY
Number of Records: 186,223;   Date Range: 1/1/95 - 8/12/14
 
SHARE

PRINT THIS DATA

[ ← Previous Day ]
WEATHER ALMANAC - 23 MARCH, 2013
[ Next Day → ]
[ °F ]   °C
Weather ElementAverageHighLow
Temperature7.2 °C11.7 °C (2:53 pm)2.8 °C (4:53 am)
Dewpoint-2.7 °C0.6 °C (11:53 pm)-6.7 °C (10:53 am)
Humidity50.9 %67 % (4:53 am)37 % (11:53 am)
Barometer1014.6 hPa1017.9 hPa (8:53 am)1010.5 hPa (7:53 pm)
Wind Speed12.6 km/h22.2 km/h (3:53 pm)
Wind Gust33.3 km/h (8:53 pm)
Weather ElementAverage
Visibility16.1 km
Wind DirectionENE (56.5 °)

Weather ElementTotal
Precipitation0.25 mm
Heating Degree Days11.1 (Base 18.3)
Averaged from 23 records on 23 March, 2013
WEATHER CONDITIONS BREAKOUT
WIND DIRECTION BREAKOUT
WEATHER BY HOUR - 23 MARCH, 2013
[ °F ]   °C
Local TimeTemperatureDewpointHumidityBarometerVisibilityWind DirectionWind SpeedGust SpeedPrecipitationEventsConditions
1:53 AM3.3 °C-3.9 °C60 %1017.3 hPa16.1 kmEast (100°)7.4 km/hOvercast
2:53 AM3.3 °C-3.9 °C60 %1016.9 hPa16.1 kmCalmOvercast
3:53 AM3.3 °C-3.3 °C62 %1016.3 hPa16.1 kmCalmOvercast
4:53 AM2.8 °C-2.8 °C67 %1016.3 hPa16.1 kmNNE (20°)7.4 km/hOvercast
5:53 AM2.8 °C-3.9 °C62 %1016.6 hPa16.1 kmENE (70°)7.4 km/hOvercast
6:53 AM2.8 °C-3.9 °C62 %1017.3 hPa16.1 kmENE (70°)7.4 km/hOvercast
7:53 AM3.3 °C-3.9 °C60 %1017.6 hPa16.1 kmENE (60°)7.4 km/hOvercast
8:53 AM3.9 °C-4.4 °C55 %1017.9 hPa16.1 kmNE (50°)13 km/hOvercast
9:53 AM5 °C-5 °C49 %1017.6 hPa16.1 kmEast (80°)11.1 km/hOvercast
10:53 AM6.7 °C-6.7 °C38 %1017.3 hPa16.1 kmENE (60°)14.8 km/hOvercast
11:53 AM7.8 °C-6.1 °C37 %1017.3 hPa16.1 kmENE (60°)13 km/hMostly Cloudy
12:53 PM9.4 °C-4.4 °C38 %1016.3 hPa16.1 kmENE (70°)13 km/hClear
1:53 PM11.1 °C-2.2 °C40 %1015.2 hPa16.1 kmVariable11.1 km/hClear
2:53 PM11.7 °C-1.7 °C40 %1014.2 hPa16.1 kmEast (80°)11.1 km/h27.8 km/hClear
3:53 PM11.1 °C-1.1 °C43 %1012.9 hPa16.1 kmEast (80°)22.2 km/hOvercast
4:53 PM11.7 °C-0.6 °C43 %1011.9 hPa16.1 kmENE (70°)18.5 km/hMostly Cloudy
5:53 PM11.1 °C-0.6 °C45 %1011.5 hPa16.1 kmENE (70°)20.4 km/hPartly Cloudy
6:53 PM10.6 °C-0.6 °C46 %1011.5 hPa16.1 kmEast (80°)18.5 km/hOvercast
7:53 PM10 °C-0.6 °C48 %1010.5 hPa16.1 kmENE (70°)16.7 km/hOvercast
8:53 PM9.4 °C-1.1 °C48 %1010.5 hPa16.1 kmENE (60°)16.7 km/h33.3 km/hOvercast
9:53 PM9.4 °C-1.1 °C48 %1010.5 hPa16.1 kmEast (80°)14.8 km/hOvercast
10:53 PM8.3 °C-0.6 °C54 %1011.2 hPa16.1 kmNE (40°)13 km/h0 mmRainLight Rain
11:53 PM6.7 °C0.6 °C65 %1010.8 hPa16.1 kmNNE (30°)22.2 km/h0.25 mmRainLight Rain
Hourly data recorded from KCPS, located 0 kilometers away from St. Louis - Saint Louis University, Missouri







STORIES FROM OUR PARTNERS